Location: Unspecified
(0.0000°N, 0.0000°E)
Time: 17:27:15
(UTC+00:00)

STARLINK 1053 - Pass Details

Date: 23 January 2020
Orbit: 549 x 551 km, 53.0° (Epoch: 23 January)

Event Time Altitude Azimuth Distance (km) Brightness Sun altitude
Exits shadow 05:04:37 26° 263° (W) 1,101 4.6 -15.8°
Maximum altitude 05:06:06 34° 304° (NW) 906 4.2 -15.4°
Drops below altitude 10° 05:09:52 10° 10° (N) 1,809 6.1 -14.5°
Sets 05:12:14 0° 19° (NNE) 2,699 7.1 -14.0°
